Time,TemperatureF,DewpointF,PressureIn,WindDirection,WindDirectionDegrees,WindSpeedMPH,WindSpeedGustMPH,Humidity,HourlyPrecipIn,Conditions,Clouds,dailyrainin,SoftwareType,DateUTC
2013-02-04 00:03:00,21.0,14.0,29.97,NW,315,1.0,2.0,74,-99.99,,,-99.99,,2013-02-04 05:03:00,
2013-02-04 00:12:00,21.0,14.0,29.97,NW,315,1.0,2.0,74,-99.99,,,-99.99,,2013-02-04 05:12:00,
2013-02-04 00:22:00,21.0,14.0,29.97,NW,315,1.0,1.0,74,-99.99,,,-99.99,,2013-02-04 05:22:00,
2013-02-04 00:33:00,21.0,14.0,29.96,NW,315,1.0,1.0,74,-99.99,,,-99.99,,2013-02-04 05:33:00,
2013-02-04 00:42:00,21.0,14.0,29.96,NW,315,1.0,1.0,74,-99.99,,,-99.99,,2013-02-04 05:42:00,
2013-02-04 00:52:00,21.0,14.0,29.96,NW,315,0.0,1.0,75,-99.99,,,-99.99,,2013-02-04 05:52:00,
2013-02-04 01:02:00,21.0,15.0,29.96,NW,315,1.0,2.0,76,-99.99,,,-99.99,,2013-02-04 06:02:00,
2013-02-04 01:11:00,21.0,15.0,29.96,NW,315,1.0,2.0,76,-99.99,,,-99.99,,2013-02-04 06:11:00,
2013-02-04 01:21:00,20.0,14.0,29.96,WNW,301,1.0,2.0,76,-99.99,,,-99.99,,2013-02-04 06:21:00,
2013-02-04 01:32:00,20.0,14.0,29.96,NW,305,1.0,2.0,77,-99.99,,,-99.99,,2013-02-04 06:32:00,
2013-02-04 01:42:00,20.0,14.0,29.96,NW,305,1.0,2.0,77,-99.99,,,-99.99,,2013-02-04 06:42:00,
2013-02-04 01:51:00,20.0,14.0,29.96,NW,304,0.0,2.0,77,-99.99,,,-99.99,,2013-02-04 06:51:00,
2013-02-04 02:02:00,20.0,14.0,29.96,NW,308,1.0,1.0,78,-99.99,,,-99.99,,2013-02-04 07:02:00,
2013-02-04 02:11:00,20.0,14.0,29.96,NW,308,1.0,1.0,78,-99.99,,,-99.99,,2013-02-04 07:11:00,
2013-02-04 02:21:00,20.0,14.0,29.96,NW,310,0.0,1.0,78,-99.99,,,-99.99,,2013-02-04 07:21:00,
2013-02-04 02:32:00,20.0,14.0,29.96,NW,320,1.0,1.0,77,-99.99,,,-99.99,,2013-02-04 07:32:00,
2013-02-04 02:42:00,20.0,14.0,29.96,NW,320,1.0,1.0,77,-99.99,,,-99.99,,2013-02-04 07:42:00,
2013-02-04 02:52:00,20.0,14.0,29.95,NW,315,1.0,1.0,77,-99.99,,,-99.99,,2013-02-04 07:52:00,
2013-02-04 03:01:00,20.0,14.0,29.95,NW,319,1.0,2.0,77,-99.99,,,-99.99,,2013-02-04 08:01:00,
2013-02-04 03:11:00,20.0,14.0,29.95,NW,319,1.0,2.0,77,-99.99,,,-99.99,,2013-02-04 08:11:00,
2013-02-04 03:21:00,20.0,14.0,29.95,NW,319,0.0,1.0,78,-99.99,,,-99.99,,2013-02-04 08:21:00,
2013-02-04 03:32:00,21.0,15.0,29.96,NW,307,1.0,2.0,77,-99.99,,,-99.99,,2013-02-04 08:32:00,
2013-02-04 03:42:00,21.0,15.0,29.96,NW,307,1.0,2.0,77,-99.99,,,-99.99,,2013-02-04 08:42:00,
2013-02-04 03:52:00,21.0,15.0,29.95,WNW,300,1.0,1.0,78,-99.99,,,-99.99,,2013-02-04 08:52:00,
2013-02-04 04:02:00,21.0,16.0,29.95,WNW,301,1.0,2.0,79,-99.99,,,-99.99,,2013-02-04 09:02:00,
2013-02-04 04:11:00,21.0,16.0,29.95,WNW,301,1.0,2.0,79,-99.99,,,-99.99,,2013-02-04 09:11:00,
2013-02-04 04:21:00,21.0,16.0,29.96,NW,319,2.0,4.0,80,-99.99,,,-99.99,,2013-02-04 09:21:00,
2013-02-04 04:32:00,21.0,16.0,29.96,NNW,330,1.0,4.0,81,-99.99,,,-99.99,,2013-02-04 09:32:00,
2013-02-04 04:42:00,21.0,16.0,29.96,NNW,330,1.0,4.0,81,-99.99,,,-99.99,,2013-02-04 09:42:00,
2013-02-04 04:52:00,21.0,16.0,29.97,NW,315,2.0,4.0,82,-99.99,,,-99.99,,2013-02-04 09:52:00,
2013-02-04 05:01:00,22.0,18.0,29.98,NNW,329,1.0,4.0,83,-99.99,,,-99.99,,2013-02-04 10:01:00,
2013-02-04 05:11:00,22.0,18.0,29.98,NNW,329,1.0,4.0,83,-99.99,,,-99.99,,2013-02-04 10:11:00,
2013-02-04 05:21:00,22.0,18.0,29.98,NNE,15,2.0,5.0,83,-99.99,,,-99.99,,2013-02-04 10:21:00,
2013-02-04 05:32:00,22.0,17.0,29.99,WNW,301,2.0,4.0,82,-99.99,,,-99.99,,2013-02-04 10:32:00,
2013-02-04 05:42:00,22.0,17.0,29.99,WNW,301,2.0,4.0,82,-99.99,,,-99.99,,2013-02-04 10:42:00,
2013-02-04 05:52:00,22.0,17.0,29.99,NW,323,2.0,5.0,81,-99.99,,,-99.99,,2013-02-04 10:52:00,
2013-02-04 06:02:00,21.0,16.0,29.99,NNW,339,2.0,4.0,82,-99.99,,,-99.99,,2013-02-04 11:02:00,
2013-02-04 06:11:00,21.0,16.0,29.99,NNW,339,2.0,4.0,82,-99.99,,,-99.99,,2013-02-04 11:11:00,
2013-02-04 06:22:00,21.0,16.0,30.00,NNW,335,2.0,4.0,82,-99.99,,,-99.99,,2013-02-04 11:22:00,
2013-02-04 06:33:00,21.0,16.0,30.01,NNW,332,2.0,5.0,82,-99.99,,,-99.99,,2013-02-04 11:33:00,
2013-02-04 06:42:00,21.0,16.0,30.01,NNW,332,2.0,5.0,82,-99.99,,,-99.99,,2013-02-04 11:42:00,
2013-02-04 06:52:00,21.0,16.0,30.02,NW,315,2.0,4.0,82,-99.99,,,-99.99,,2013-02-04 11:52:00,
2013-02-04 07:03:00,21.0,16.0,30.02,NW,321,2.0,8.0,81,-99.99,,,-99.99,,2013-02-04 12:03:00,
2013-02-04 07:12:00,21.0,16.0,30.02,NW,321,2.0,8.0,81,-99.99,,,-99.99,,2013-02-04 12:12:00,
2013-02-04 07:22:00,20.0,15.0,30.03,West,281,2.0,4.0,82,-99.99,,,-99.99,,2013-02-04 12:22:00,
2013-02-04 07:32:00,20.0,15.0,30.03,NW,315,3.0,6.0,81,-99.99,,,-99.99,,2013-02-04 12:32:00,
2013-02-04 07:42:00,20.0,15.0,30.03,NW,315,3.0,6.0,81,-99.99,,,-99.99,,2013-02-04 12:42:00,
2013-02-04 07:52:00,21.0,16.0,30.03,NNE,12,2.0,4.0,79,-99.99,,,-99.99,,2013-02-04 12:52:00,
2013-02-04 08:03:00,21.0,15.0,30.04,NW,321,3.0,6.0,77,-99.99,,,-99.99,,2013-02-04 13:03:00,
2013-02-04 08:12:00,22.0,15.0,30.05,NW,319,3.0,6.0,75,-99.99,,,-99.99,,2013-02-04 13:12:00,
2013-02-04 08:22:00,22.0,15.0,30.05,NW,319,3.0,6.0,75,-99.99,,,-99.99,,2013-02-04 13:22:00,
2013-02-04 08:33:00,22.0,15.0,30.05,NW,309,3.0,5.0,74,-99.99,,,-99.99,,2013-02-04 13:33:00,
2013-02-04 08:42:00,22.0,15.0,30.05,NW,309,3.0,5.0,74,-99.99,,,-99.99,,2013-02-04 13:42:00,
2013-02-04 08:52:00,22.0,13.0,30.05,NNW,328,4.0,8.0,68,-99.99,,,-99.99,,2013-02-04 13:52:00,
2013-02-04 09:03:00,22.0,12.0,30.06,NNW,339,4.0,8.0,66,-99.99,,,-99.99,,2013-02-04 14:03:00,
2013-02-04 09:12:00,22.0,12.0,30.06,NNW,339,4.0,8.0,66,-99.99,,,-99.99,,2013-02-04 14:12:00,
2013-02-04 09:23:00,23.0,12.0,30.06,NW,311,4.0,10.0,63,-99.99,,,-99.99,,2013-02-04 14:23:00,
2013-02-04 09:33:00,23.0,12.0,30.06,NNE,32,3.0,10.0,61,-99.99,,,-99.99,,2013-02-04 14:33:00,
2013-02-04 09:42:00,23.0,12.0,30.06,NNE,32,3.0,10.0,61,-99.99,,,-99.99,,2013-02-04 14:42:00,
2013-02-04 09:52:00,23.0,12.0,30.06,NNE,32,3.0,10.0,61,-99.99,,,-99.99,,2013-02-04 14:52:00,
2013-02-04 10:03:00,24.0,11.0,30.07,WNW,290,4.0,8.0,58,-99.99,,,-99.99,,2013-02-04 15:03:00,
2013-02-04 10:13:00,24.0,11.0,30.07,WNW,290,4.0,8.0,58,-99.99,,,-99.99,,2013-02-04 15:13:00,
2013-02-04 10:24:00,25.0,12.0,30.07,NW,315,4.0,8.0,56,-99.99,,,-99.99,,2013-02-04 15:24:00,
2013-02-04 10:33:00,24.0,10.0,30.08,NNW,341,3.0,8.0,55,-99.99,,,-99.99,,2013-02-04 15:33:00,
2013-02-04 10:43:00,24.0,10.0,30.08,NNW,341,3.0,8.0,55,-99.99,,,-99.99,,2013-02-04 15:43:00,
2013-02-04 10:53:00,24.0,10.0,30.08,NW,311,3.0,7.0,54,-99.99,,,-99.99,,2013-02-04 15:53:00,
2013-02-04 11:03:00,24.0,9.0,30.08,WNW,287,3.0,8.0,53,-99.99,,,-99.99,,2013-02-04 16:03:00,
2013-02-04 11:11:00,24.0,9.0,30.08,WNW,287,3.0,8.0,53,-99.99,,,-99.99,,2013-02-04 16:11:00,
2013-02-04 11:23:00,25.0,10.0,30.08,WNW,287,4.0,9.0,52,-99.99,,,-99.99,,2013-02-04 16:23:00,
2013-02-04 11:33:00,26.0,11.0,30.07,NNW,340,5.0,11.0,52,-99.99,,,-99.99,,2013-02-04 16:33:00,
2013-02-04 11:43:00,26.0,11.0,30.07,NNW,340,5.0,11.0,52,-99.99,,,-99.99,,2013-02-04 16:43:00,
2013-02-04 11:52:00,26.0,10.0,30.06,West,281,4.0,7.0,50,-99.99,,,-99.99,,2013-02-04 16:52:00,
2013-02-04 12:02:00,26.0,9.0,30.05,NW,309,4.0,9.0,48,-99.99,,,-99.99,,2013-02-04 17:02:00,
2013-02-04 12:11:00,26.0,9.0,30.05,NW,309,4.0,9.0,48,-99.99,,,-99.99,,2013-02-04 17:11:00,
2013-02-04 12:21:00,26.0,9.0,30.05,WNW,286,5.0,8.0,48,-99.99,,,-99.99,,2013-02-04 17:21:00,
2013-02-04 12:32:00,27.0,9.0,30.05,NNW,340,4.0,9.0,47,-99.99,,,-99.99,,2013-02-04 17:32:00,
2013-02-04 12:42:00,27.0,9.0,30.05,NNW,340,4.0,9.0,47,-99.99,,,-99.99,,2013-02-04 17:42:00,
2013-02-04 12:52:00,27.0,9.0,30.05,NNW,330,4.0,10.0,47,-99.99,,,-99.99,,2013-02-04 17:52:00,
2013-02-04 13:03:00,26.0,9.0,30.05,NNW,340,5.0,8.0,47,-99.99,,,-99.99,,2013-02-04 18:03:00,
2013-02-04 13:11:00,26.0,9.0,30.05,NNW,340,5.0,8.0,47,-99.99,,,-99.99,,2013-02-04 18:11:00,
2013-02-04 13:22:00,26.0,9.0,30.05,WNW,293,4.0,8.0,48,-99.99,,,-99.99,,2013-02-04 18:22:00,
2013-02-04 13:32:00,27.0,9.0,30.04,NW,309,4.0,7.0,47,-99.99,,,-99.99,,2013-02-04 18:32:00,
2013-02-04 13:42:00,27.0,9.0,30.04,NW,309,4.0,7.0,47,-99.99,,,-99.99,,2013-02-04 18:42:00,
2013-02-04 13:52:00,28.0,10.0,30.05,West,278,5.0,8.0,46,-99.99,,,-99.99,,2013-02-04 18:52:00,
2013-02-04 14:02:00,27.0,9.0,30.04,WNW,294,3.0,7.0,45,-99.99,,,-99.99,,2013-02-04 19:02:00,
2013-02-04 14:11:00,27.0,9.0,30.04,WNW,294,3.0,7.0,45,-99.99,,,-99.99,,2013-02-04 19:11:00,
2013-02-04 14:22:00,27.0,8.0,30.05,WNW,302,4.0,9.0,44,-99.99,,,-99.99,,2013-02-04 19:22:00,
2013-02-04 14:32:00,28.0,8.0,30.05,WNW,288,4.0,9.0,42,-99.99,,,-99.99,,2013-02-04 19:32:00,
2013-02-04 14:42:00,28.0,8.0,30.05,WNW,288,4.0,9.0,42,-99.99,,,-99.99,,2013-02-04 19:42:00,
2013-02-04 14:52:00,28.0,8.0,30.05,NW,304,5.0,8.0,42,-99.99,,,-99.99,,2013-02-04 19:52:00,
2013-02-04 15:02:00,27.0,8.0,30.05,NW,305,4.0,8.0,44,-99.99,,,-99.99,,2013-02-04 20:02:00,
2013-02-04 15:12:00,27.0,8.0,30.05,NW,305,4.0,8.0,44,-99.99,,,-99.99,,2013-02-04 20:12:00,
2013-02-04 15:22:00,28.0,8.0,30.05,North,352,4.0,7.0,43,-99.99,,,-99.99,,2013-02-04 20:22:00,
2013-02-04 15:32:00,28.0,8.0,30.05,NNW,345,5.0,15.0,42,-99.99,,,-99.99,,2013-02-04 20:32:00,
2013-02-04 15:42:00,28.0,8.0,30.05,NNW,345,5.0,15.0,42,-99.99,,,-99.99,,2013-02-04 20:42:00,
2013-02-04 15:52:00,28.0,8.0,30.04,West,277,4.0,7.0,42,-99.99,,,-99.99,,2013-02-04 20:52:00,
2013-02-04 16:03:00,29.0,8.0,30.03,NW,325,4.0,7.0,41,-99.99,,,-99.99,,2013-02-04 21:03:00,
2013-02-04 16:11:00,29.0,8.0,30.03,NW,325,4.0,7.0,41,-99.99,,,-99.99,,2013-02-04 21:11:00,
2013-02-04 16:22:00,28.0,7.0,30.04,NW,324,4.0,9.0,40,-99.99,,,-99.99,,2013-02-04 21:22:00,
2013-02-04 16:32:00,28.0,7.0,30.04,NNW,339,4.0,8.0,40,-99.99,,,-99.99,,2013-02-04 21:32:00,
2013-02-04 16:42:00,28.0,7.0,30.04,NNW,339,4.0,8.0,40,-99.99,,,-99.99,,2013-02-04 21:42:00,
2013-02-04 16:52:00,28.0,7.0,30.05,NW,311,4.0,7.0,40,-99.99,,,-99.99,,2013-02-04 21:52:00,
2013-02-04 17:03:00,27.0,6.0,30.05,NW,326,3.0,7.0,40,-99.99,,,-99.99,,2013-02-04 22:03:00,
2013-02-04 17:12:00,27.0,6.0,30.05,NW,326,3.0,7.0,40,-99.99,,,-99.99,,2013-02-04 22:12:00,
2013-02-04 17:21:00,27.0,6.0,30.06,NW,312,4.0,7.0,41,-99.99,,,-99.99,,2013-02-04 22:21:00,
2013-02-04 17:32:00,26.0,6.0,30.06,WNW,290,3.0,8.0,41,-99.99,,,-99.99,,2013-02-04 22:32:00,
2013-02-04 17:42:00,26.0,6.0,30.06,WNW,290,3.0,8.0,41,-99.99,,,-99.99,,2013-02-04 22:42:00,
2013-02-04 17:52:00,26.0,6.0,30.08,NW,304,3.0,5.0,42,-99.99,,,-99.99,,2013-02-04 22:52:00,
2013-02-04 18:01:00,26.0,6.0,30.09,NW,321,3.0,6.0,42,-99.99,,,-99.99,,2013-02-04 23:01:00,
2013-02-04 18:11:00,26.0,6.0,30.09,NW,321,3.0,6.0,42,-99.99,,,-99.99,,2013-02-04 23:11:00,
2013-02-04 18:22:00,26.0,6.0,30.09,NW,312,2.0,6.0,42,-99.99,,,-99.99,,2013-02-04 23:22:00,
2013-02-04 18:32:00,26.0,7.0,30.10,NW,309,2.0,4.0,43,-99.99,,,-99.99,,2013-02-04 23:32:00,
2013-02-04 18:42:00,26.0,7.0,30.10,NW,309,2.0,4.0,43,-99.99,,,-99.99,,2013-02-04 23:42:00,
2013-02-04 18:52:00,25.0,6.0,30.10,WNW,293,2.0,5.0,43,-99.99,,,-99.99,,2013-02-04 23:52:00,
2013-02-04 19:02:00,25.0,6.0,30.11,NNW,332,3.0,6.0,44,-99.99,,,-99.99,,2013-02-05 00:02:00,
2013-02-04 19:11:00,25.0,6.0,30.11,NNW,332,3.0,6.0,44,-99.99,,,-99.99,,2013-02-05 00:11:00,
2013-02-04 19:22:00,25.0,6.0,30.12,WNW,299,4.0,8.0,43,-99.99,,,-99.99,,2013-02-05 00:22:00,
2013-02-04 19:32:00,25.0,6.0,30.12,NW,313,3.0,6.0,43,-99.99,,,-99.99,,2013-02-05 00:32:00,
2013-02-04 19:42:00,25.0,6.0,30.12,NW,313,3.0,6.0,43,-99.99,,,-99.99,,2013-02-05 00:42:00,
2013-02-04 19:52:00,25.0,6.0,30.12,NW,318,3.0,4.0,44,-99.99,,,-99.99,,2013-02-05 00:52:00,
2013-02-04 20:02:00,25.0,6.0,30.12,NW,314,4.0,8.0,43,-99.99,,,-99.99,,2013-02-05 01:02:00,
2013-02-04 20:12:00,25.0,6.0,30.12,NW,314,4.0,8.0,43,-99.99,,,-99.99,,2013-02-05 01:12:00,
2013-02-04 20:22:00,25.0,6.0,30.13,NNW,348,3.0,5.0,44,-99.99,,,-99.99,,2013-02-05 01:22:00,
2013-02-04 20:32:00,24.0,6.0,30.13,NW,315,4.0,7.0,45,-99.99,,,-99.99,,2013-02-05 01:32:00,
2013-02-04 20:42:00,24.0,6.0,30.13,NW,315,4.0,7.0,45,-99.99,,,-99.99,,2013-02-05 01:42:00,
2013-02-04 20:52:00,24.0,6.0,30.14,NW,309,3.0,6.0,45,-99.99,,,-99.99,,2013-02-05 01:52:00,
2013-02-04 21:01:00,24.0,6.0,30.14,NNW,336,3.0,6.0,45,-99.99,,,-99.99,,2013-02-05 02:01:00,
2013-02-04 21:11:00,24.0,6.0,30.14,NNW,336,3.0,6.0,45,-99.99,,,-99.99,,2013-02-05 02:11:00,
2013-02-04 21:22:00,24.0,6.0,30.14,NNW,343,3.0,6.0,45,-99.99,,,-99.99,,2013-02-05 02:22:00,
2013-02-04 21:32:00,24.0,6.0,30.14,NW,325,2.0,6.0,45,-99.99,,,-99.99,,2013-02-05 02:32:00,
2013-02-04 21:42:00,24.0,6.0,30.14,NW,325,2.0,6.0,45,-99.99,,,-99.99,,2013-02-05 02:42:00,
2013-02-04 21:52:00,24.0,6.0,30.14,West,280,2.0,4.0,46,-99.99,,,-99.99,,2013-02-05 02:52:00,
2013-02-04 22:02:00,24.0,7.0,30.14,NW,312,2.0,4.0,47,-99.99,,,-99.99,,2013-02-05 03:02:00,
2013-02-04 22:11:00,24.0,7.0,30.14,NW,312,2.0,4.0,47,-99.99,,,-99.99,,2013-02-05 03:11:00,
2013-02-04 22:21:00,23.0,6.0,30.14,NW,307,1.0,3.0,47,-99.99,,,-99.99,,2013-02-05 03:21:00,
2013-02-04 22:32:00,23.0,6.0,30.14,WNW,290,1.0,2.0,48,-99.99,,,-99.99,,2013-02-05 03:32:00,
2013-02-04 22:42:00,23.0,6.0,30.14,WNW,290,1.0,2.0,48,-99.99,,,-99.99,,2013-02-05 03:42:00,
2013-02-04 22:52:00,23.0,7.0,30.14,WNW,300,1.0,2.0,49,-99.99,,,-99.99,,2013-02-05 03:52:00,
2013-02-04 23:01:00,23.0,7.0,30.14,NW,307,1.0,2.0,49,-99.99,,,-99.99,,2013-02-05 04:01:00,
2013-02-04 23:11:00,23.0,7.0,30.14,NW,307,1.0,2.0,49,-99.99,,,-99.99,,2013-02-05 04:11:00,
2013-02-04 23:22:00,23.0,7.0,30.14,WNW,295,1.0,2.0,50,-99.99,,,-99.99,,2013-02-05 04:22:00,
2013-02-04 23:32:00,23.0,7.0,30.15,WNW,295,0.0,2.0,50,-99.99,,,-99.99,,2013-02-05 04:32:00,
2013-02-04 23:42:00,23.0,7.0,30.15,WNW,295,0.0,2.0,50,-99.99,,,-99.99,,2013-02-05 04:42:00,
2013-02-04 23:52:00,22.0,7.0,30.15,NW,307,0.0,1.0,51,-99.99,,,-99.99,,2013-02-05 04:52:00,